Powrót do katalogu

STARLINK-3730

AktywnyŁącznośćVLEO
NORAD 52139·PAYLOAD·🇺🇸 United States

Wystrzelony Mar 19, 2022 z Cape Canaveral Space Force Station

Loading…

Następne Przeloty (najbliższe 24 godziny)

TLE

ŚwieżeSource: CelesTrak SupGP

Epoka: Sep 14, 2026, 21:22 UTC

1 52139C 22029BD  26257.89076389  .00018066  00000+0  53398-3 0  2575
2 52139  53.1562 295.5964 0001262 105.0313  14.7590 15.34369342    15

Śledź STARLINK-3730 w czasie rzeczywistym z AllMySat

Download on the App Store